Novato, CA

10:54 PM PST on November 17, 2019 (GMT -0800)
Gnoss

Weather History for KDVO - September, 2019

Change the Weather History Date:

Thursday, September 19, 2019

  Actual Average (WUND) Record (WUND)
Temperature  
Mean Temperature 64 °F -  
Max Temperature 78 °F - - (-1)
Min Temperature 50 °F - - (-1)
Degree Days  
Heating Degree Days 1    
Growing Degree Days 14 (Base 50)    
Moisture  
Dew Point 49 °F    
Average Humidity 63    
Maximum Humidity 100    
Minimum Humidity 34    
Precipitation  
Precipitation 0.00 in - - ()
Sea Level Pressure  
Sea Level Pressure 29.93 in    
Wind  
Wind Speed 4 mph ()    
Max Wind Speed 17 mph    
Max Gust Speed 22 mph    
Visibility 9.8 miles    
Events      
Averages and records for this station are not official NWS values.
T = Trace of Precipitation, MM = Missing Value Source: Averaged Metar Reports

Daily Weather History Graph

Daily Weather History Graph

Search for Another Location

Airport or City:

Astronomy

Sep. 19, 2019 Rise Set
Actual Time 6:55 AM PDT 7:12 PM PDT
Civil Twilight 6:28 AM PDT 7:38 PM PDT
Nautical Twilight 5:58 AM PDT 8:09 PM PDT
Astronomical Twilight 5:26 AM PDT 8:40 PM PDT
Moon 10:29 PM PDT (9/19) 11:59 AM PDT (9/19)
Length of Visible Light 13h 09m
Length of Day
12h 16m
Waning Gibbous, 73% of the Moon is Illuminated
Sep 19
Waning Gibbous
Sep 21
Last Quarter
Sep 28
New
Oct 5
First Quarter
Oct 13
Full

Hourly Weather History & Observations

Time (PDT) Temp. Dew Point Humidity Pressure Visibility Wind Dir Wind Speed Gust Speed Precip Events Conditions
12:15 AM 57.2 °F 53.6 °F 88% 29.94 in 10.0 mi NNE 5.8 mph - N/A   Clear
12:35 AM 59.0 °F 53.6 °F 82% 29.94 in 10.0 mi North 3.5 mph - N/A   Clear
12:55 AM 57.2 °F 51.8 °F 82% 29.94 in 10.0 mi Calm Calm - N/A   Clear
1:15 AM 57.2 °F 51.8 °F 82% 29.94 in 10.0 mi Variable 5.8 mph - N/A   Clear
1:35 AM 59.0 °F 51.8 °F 77% 29.94 in 10.0 mi NW 6.9 mph - N/A   Clear
1:55 AM 60.8 °F 51.8 °F 72% 29.94 in 10.0 mi North - - N/A   Clear
2:15 AM 60.8 °F 51.8 °F 72% 29.93 in 10.0 mi NW 10.4 mph - N/A   Clear
2:35 AM 60.8 °F 51.8 °F 72% 29.93 in 10.0 mi Calm Calm - N/A   Clear
2:55 AM 59.0 °F 51.8 °F 77% 29.93 in 10.0 mi Calm Calm - N/A   Clear
3:15 AM 59.0 °F 50.0 °F 72% 29.93 in 10.0 mi Calm Calm - N/A   Clear
3:35 AM 57.2 °F 50.0 °F 77% 29.93 in 10.0 mi SSE 3.5 mph - N/A   Clear
3:55 AM 55.4 °F 50.0 °F 82% 29.93 in 10.0 mi Calm Calm - N/A   Clear
4:15 AM 55.4 °F 51.8 °F 88% 29.93 in 10.0 mi Calm Calm - N/A   Clear
4:35 AM 55.4 °F 51.8 °F 88% 29.93 in 10.0 mi East 3.5 mph - N/A   Clear
4:55 AM 55.4 °F 51.8 °F 88% 29.92 in 10.0 mi Calm Calm - N/A   Clear
5:15 AM 53.6 °F 50.0 °F 88% 29.92 in 10.0 mi Calm Calm - N/A   Clear
5:35 AM 51.8 °F 50.0 °F 94% 29.92 in 10.0 mi Calm Calm - N/A   Clear
5:55 AM 53.6 °F 50.0 °F 88% 29.93 in 10.0 mi ESE 4.6 mph - N/A   Clear
6:15 AM 51.8 °F 50.0 °F 94% 29.94 in 10.0 mi Calm Calm - N/A   Clear
6:35 AM 50.0 °F 50.0 °F 100% 29.94 in 10.0 mi Calm Calm - N/A   Clear
6:55 AM 50.0 °F 48.2 °F 94% 29.95 in 10.0 mi Calm Calm - N/A   Clear
7:15 AM 50.0 °F 50.0 °F 100% 29.95 in 10.0 mi Calm Calm - N/A   Clear
7:35 AM 51.8 °F 50.0 °F 94% 29.96 in 10.0 mi Calm Calm - N/A   Clear
7:55 AM 53.6 °F 51.8 °F 94% 29.96 in 10.0 mi Calm Calm - N/A   Clear
8:15 AM 55.4 °F 53.6 °F 94% 29.96 in 10.0 mi Calm Calm - N/A   Clear
8:55 AM 60.8 °F 53.6 °F 77% 29.96 in 10.0 mi Calm Calm - N/A   Clear
9:15 AM 64.4 °F 53.6 °F 68% 29.96 in 10.0 mi North 6.9 mph - N/A   Clear
9:35 AM 64.4 °F 53.6 °F 68% 29.97 in 10.0 mi NW 9.2 mph 15.0 mph N/A   Clear
9:55 AM 66.2 °F 51.8 °F 60% 29.97 in 10.0 mi NNW 10.4 mph - N/A   Clear
10:15 AM 68.0 °F 51.8 °F 56% 29.97 in 10.0 mi Variable 6.9 mph - N/A   Clear
10:35 AM 68.0 °F 50.0 °F 52% 29.97 in 10.0 mi Calm Calm - N/A   Clear
10:55 AM 68.0 °F 50.0 °F 52% 29.97 in 10.0 mi East 4.6 mph - N/A   Clear
11:15 AM 69.8 °F 50.0 °F 49% 29.97 in 10.0 mi Calm Calm - N/A   Clear
11:35 AM 71.6 °F 48.2 °F 43% 29.97 in 10.0 mi South 4.6 mph - N/A   Clear
11:55 AM 71.6 °F 48.2 °F 43% 29.97 in 10.0 mi Variable 3.5 mph - N/A   Clear
12:15 PM 71.6 °F 48.2 °F 43% 29.96 in 10.0 mi Calm Calm - N/A   Clear
12:35 PM 73.4 °F 48.2 °F 41% 29.96 in 9.0 mi Variable 5.8 mph - N/A   Clear
12:55 PM 75.2 °F 48.2 °F 38% 29.95 in 8.0 mi SSW 5.8 mph - N/A   Clear
1:15 PM 75.2 °F 46.4 °F 36% 29.94 in 10.0 mi SSE 6.9 mph - N/A   Clear
1:35 PM 77.0 °F 46.4 °F 34% 29.94 in 7.0 mi SE 6.9 mph - N/A   Clear
1:55 PM 77.0 °F 46.4 °F 34% 29.93 in 9.0 mi Variable 4.6 mph - N/A   Clear
2:15 PM 77.0 °F 46.4 °F 34% 29.93 in 9.0 mi SE 9.2 mph - N/A   Clear
2:35 PM 77.0 °F 46.4 °F 34% 29.92 in 9.0 mi East 4.6 mph 11.5 mph N/A   Clear
2:55 PM 77.0 °F 46.4 °F 34% 29.92 in 9.0 mi Variable 5.8 mph 11.5 mph N/A   Clear
3:15 PM 78.8 °F 48.2 °F 34% 29.91 in 9.0 mi SE 8.1 mph - N/A   Clear
3:35 PM 78.8 °F 50.0 °F 36% 29.90 in 6.0 mi SW 17.3 mph - N/A   Haze
3:55 PM 77.0 °F 50.0 °F 39% 29.91 in 10.0 mi West 11.5 mph 20.7 mph N/A   Clear
4:15 PM 77.0 °F 50.0 °F 39% 29.91 in 10.0 mi WSW 12.7 mph - N/A   Clear
4:35 PM 77.0 °F 50.0 °F 39% 29.91 in 10.0 mi SW 13.8 mph - N/A   Clear
4:55 PM 75.2 °F 50.0 °F 41% 29.90 in 10.0 mi SW 16.1 mph - N/A   Clear
5:15 PM 73.4 °F 50.0 °F 44% 29.91 in 10.0 mi SW 10.4 mph 21.9 mph N/A   Clear
5:35 PM 73.4 °F 50.0 °F 44% 29.90 in 10.0 mi WSW 13.8 mph - N/A   Clear
5:55 PM 73.4 °F 50.0 °F 44% 29.90 in 10.0 mi SW 8.1 mph 19.6 mph N/A   Clear
6:15 PM 73.4 °F 48.2 °F 41% 29.90 in 10.0 mi WSW 10.4 mph - N/A   Clear
6:35 PM 71.6 °F 48.2 °F 43% 29.91 in 10.0 mi Calm Calm - N/A   Clear
6:55 PM 69.8 °F 48.2 °F 46% 29.91 in 10.0 mi East 4.6 mph - N/A   Clear
7:15 PM 68.0 °F 48.2 °F 49% 29.91 in 10.0 mi SSE 5.8 mph - N/A   Clear
7:35 PM 68.0 °F 48.2 °F 49% 29.91 in 10.0 mi Calm Calm - N/A   Clear
7:55 PM 66.2 °F 48.2 °F 52% 29.91 in 10.0 mi SSE 3.5 mph - N/A   Clear
8:15 PM 66.2 °F 48.2 °F 52% 29.91 in 10.0 mi Calm Calm - N/A   Clear
8:35 PM 64.4 °F 48.2 °F 56% 29.91 in 10.0 mi ENE 5.8 mph - N/A   Clear
8:55 PM 62.6 °F 48.2 °F 59% 29.91 in 10.0 mi Calm Calm - N/A   Clear
9:15 PM 64.4 °F 46.4 °F 52% 29.92 in 10.0 mi ENE 4.6 mph - N/A   Clear
9:35 PM 60.8 °F 46.4 °F 59% 29.91 in 10.0 mi Calm Calm - N/A   Clear
9:55 PM 57.2 °F 44.6 °F 63% 29.92 in 10.0 mi Calm Calm - N/A   Clear
10:15 PM 59.0 °F 46.4 °F 63% 29.92 in 10.0 mi Calm Calm - N/A   Clear
10:35 PM 57.2 °F 46.4 °F 67% 29.92 in 10.0 mi Calm Calm - N/A   Clear
10:55 PM 57.2 °F 46.4 °F 67% 29.92 in 10.0 mi Calm Calm - N/A   Clear
11:15 PM 53.6 °F 44.6 °F 72% 29.92 in 10.0 mi Calm Calm - N/A   Clear
11:35 PM 55.4 °F 48.2 °F 77% 29.92 in 10.0 mi North - - N/A   Clear
11:55 PM 55.4 °F 48.2 °F 77% 29.92 in 10.0 mi Calm Calm - N/A   Clear